Terminal Aerodrome Forecast
Issued by NWS

Home | Current Version | Previous Version | Text Only | Print | Product List | Glossary Off
Versions: 1 2 3 4 5 6 7 8 9 10 11 12 13 14 15 16 17 18 19 20 21

000
FTUS43 KMPX 281120
TAFRNH
TAF
KRNH 281120Z 2812/2912 05011G20KT P6SM SCT025 OVC040
      TEMPO 2812/2816 5SM -RA BR BKN025 OVC040
     FM281600 06010G19KT P6SM -SHRA SCT025 OVC040
     FM282000 06008KT P6SM VCSH OVC040
     FM290300 04003KT P6SM SCT040 OVC080=

USA.gov is the U.S. government's official web portal to all federal, state and local government web resources and services.